Location: Melbourne
(37.8666°S, 145.1333°E)
Time: 17:58:30
(UTC+11:00)

Iridium 72 - Visible Passes

Search period start: 26 October 2014 00:00
Search period end: 05 November 2014 00:00
Orbit: 776 x 779 km, 86.4° (Epoch: 26 October)

Date Brightness Start Highest point End Pass type
(mag) Time Alt. Az. Time Alt. Az. Time Alt. Az.
26 Oct 7.8 03:59:01 10° NE 04:03:02 23° E 04:07:05 10° SSE visible
26 Oct 6.1 05:38:39 10° NNW 05:43:28 37° W 05:48:21 10° SSW visible
27 Oct 8.4 03:27:57 10° E 03:29:52 12° ESE 03:31:48 10° SE visible
27 Oct 5.5 05:04:39 10° N 05:09:51 70° W 05:15:08 10° S visible
28 Oct 6.0 04:31:13 10° NNE 04:36:22 62° E 04:41:35 10° S visible
29 Oct 7.1 03:58:22 10° NNE 04:02:59 33° E 04:07:40 10° SSE visible
29 Oct 6.6 05:39:23 10° NW 05:43:42 26° W 05:48:03 10° SSW visible
30 Oct 8.0 03:26:18 10° ENE 03:29:44 18° E 03:33:12 10° SE visible
30 Oct 5.8 05:05:22 12° NNW 05:10:00 47° W 05:15:06 10° S visible
31 Oct 5.5 04:32:21 17° N 04:36:25 89° W 04:41:44 10° S visible
01 Nov 6.4 03:59:18 18° NNE 04:02:59 48° E 04:08:03 10° SSE visible
01 Nov 7.1 05:40:29 10° WNW 05:43:58 18° WSW 05:47:29 10° SW visible
02 Nov 7.4 03:26:13 14° NE 03:29:39 26° E 03:33:57 10° SSE visible
02 Nov 6.3 05:06:42 16° NW 05:10:11 32° W 05:14:55 10° SSW visible
03 Nov 8.1 02:53:52 10° ENE 02:56:27 14° ESE 02:59:03 10° SE visible
03 Nov 5.6 04:33:35 26° NNW 04:36:31 61° W 04:41:46 10° S visible
04 Nov 5.7 04:00:26 31° NNE 04:03:00 71° E 04:08:16 10° S visible
04 Nov 7.4 05:42:19 10° W 05:44:16 12° WSW 05:46:15 10° SW visible
